H1 CPF 2 NER 2025 7 22 9 203 01 glonass144 H2 2207501 9144 52984 2025 7 22 0 0 0 2025 7 25 23 45 0 900 1 1 0 0 0 1 H9 10 0 60878 0.00000 0 -21397397.593 -13024615.882 -4799883.704 10 0 60878 900.00000 0 -20735834.156 -12579740.971 -7883477.575 10 0 60878 1800.00000 0 -19696199.987 -12055931.716 -10813816.758 10 0 60878 2700.00000 0 -18287511.546 -11510163.930 -13533874.386 10 0 60878 3600.00000 0 -16531785.042 -10997719.217 -15990686.593 10 0 60878 4500.00000 0 -14463319.892 -10569684.317 -18136391.442 10 0 60878 5400.00000 0 -12127477.231 -10270640.240 -19929169.037 10 0 60878 6300.00000 0 -9579003.389 -10136639.860 -21334063.920 10 0 60878 7200.00000 0 -6879967.553 -10193560.484 -22323673.138 10 0 60878 8100.00000 0 -4097399.111 -10455901.958 -22878686.199 10 0 60878 9000.00000 0 -1300722.888 -10926081.970 -22988266.045 10 0 60878 9900.00000 0 1440900.925 -11594259.102 -22650263.385 10 0 60878 10800.00000 0 4061221.385 -12438691.662 -21871260.019 10 0 60878 11700.00000 0 6499415.822 -13426617.618 -20666440.214 10 0 60878 12600.00000 0 8702378.377 -14515618.665 -19059292.579 10 0 60878 13500.00000 0 10626682.995 -15655410.870 -17081148.315 10 0 60878 14400.00000 0 12240139.499 -16789986.127 -14770564.990 10 0 60878 15300.00000 0 13522878.623 -17860013.556 -12172568.165 10 0 60878 16200.00000 0 14467921.917 -18805399.103 -9337766.156 10 0 60878 17100.00000 0 15081214.188 -19567894.554 -6321355.766 10 0 60878 18000.00000 0 15381118.954 -20093645.234 -3182039.129 10 0 60878 18900.00000 0 15397400.239 -20335568.379 19126.369 10 0 60878 19800.00000 0 15169735.660 -20255461.512 3219921.855 10 0 60878 20700.00000 0 14745825.465 -19825751.722 6358180.391 10 0 60878 21600.00000 0 14179179.056 -19030812.212 9372995.873 10 0 60878 22500.00000 0 13526673.760 -17867790.898 12205903.589 10 0 60878 23400.00000 0 12845989.836 -16346916.589 14802009.490 10 0 60878 24300.00000 0 12193030.332 -14491270.228 17111046.629 10 0 60878 25200.00000 0 11619434.523 -12336030.996 19088339.019 10 0 60878 26100.00000 0 11170289.211 -9927228.856 20695655.218 10 0 60878 27000.00000 0 10882133.422 -7320055.286 21901936.351 10 0 60878 27900.00000 0 10781339.448 -4576801.947 22683885.757 10 0 60878 28800.00000 0 10882937.317 -1764511.998 23026410.106 10 0 60878 29700.00000 0 11189931.256 1047559.705 22922904.488 10 0 60878 30600.00000 0 11693136.357 3790573.801 22375376.703 10 0 60878 31500.00000 0 12371542.186 6398713.755 21394408.690 10 0 60878 32400.00000 0 13193188.428 8811667.031 19998955.797 10 0 60878 33300.00000 0 14116516.553 10976878.889 18215987.237 10 0 60878 34200.00000 0 15092141.783 12851486.695 16079973.911 10 0 60878 35100.00000 0 16064972.137 14403855.583 13632232.386 10 0 60878 36000.00000 0 16976586.724 15614652.406 10920136.502 10 0 60878 36900.00000 0 17767774.278 16477413.747 7996210.665 10 0 60878 37800.00000 0 18381125.830 16998584.535 4917121.320 10 0 60878 38700.00000 0 18763572.638 17197025.687 1742585.221 10 0 60878 39600.00000 0 18868762.240 17103011.371 -1465784.826 10 0 60878 40500.00000 0 18659171.798 16756757.889 -4645674.631 10 0 60878 41400.00000 0 18107868.487 16206546.053 -7735280.441 10 0 60878 42300.00000 0 17199841.226 15506516.226 -10674513.986 10 0 60878 43200.00000 0 15932845.834 14714229.233 -13406176.777 10 0 60878 44100.00000 0 14317726.113 13888096.515 -15877080.176 10 0 60878 45000.00000 0 12378195.426 13084788.586 -18039088.638 10 0 60878 45900.00000 0 10150086.092 12356731.926 -19850065.158 10 0 60878 46800.00000 0 7680096.479 11749800.771 -21274699.857 10 0 60878 47700.00000 0 5024086.899 11301302.082 -22285205.013 10 0 60878 48600.00000 0 2244994.567 11038339.450 -22861862.575 10 0 60878 49500.00000 0 -589546.071 10976625.681 -22993413.165 10 0 60878 50400.00000 0 -3409778.760 11119794.656 -22677278.712 10 0 60878 51300.00000 0 -6146489.486 11459241.858 -21919614.240 10 0 60878 52200.00000 0 -8733648.278 11974500.435 -20735187.648 10 0 60878 53100.00000 0 -11110918.697 12634136.908 -19147089.819 10 0 60878 54000.00000 0 -13225930.594 13397128.407 -17186280.728 10 0 60878 54900.00000 0 -15036221.649 14214662.888 -14890980.549 10 0 60878 55800.00000 0 -16510767.197 15032285.652 -12305917.936 10 0 60878 56700.00000 0 -17631035.304 15792300.752 -9481450.604 10 0 60878 57600.00000 0 -18391524.164 16436324.989 -6472575.901 10 0 60878 58500.00000 0 -18799760.855 16907885.772 -3337851.488 10 0 60878 59400.00000 0 -18875763.298 17154952.237 -138247.925 10 0 60878 60300.00000 0 -18650990.074 17132292.143 3064043.615 10 0 60878 61200.00000 0 -18166824.302 16803554.686 6206824.439 10 0 60878 62100.00000 0 -17472657.269 16142991.075 9229098.096 10 0 60878 63000.00000 0 -16623654.128 15136740.397 12072252.921 10 0 60878 63900.00000 0 -15678297.014 13783626.786 14681194.342 10 0 60878 64800.00000 0 -14695809.747 12095434.606 17005405.356 10 0 60878 65700.00000 0 -13733572.703 10096650.231 18999915.308 10 0 60878 66600.00000 0 -12844636.285 7823681.226 20626159.195 10 0 60878 67500.00000 0 -12075436.762 5323585.246 21852712.073 10 0 60878 68400.00000 0 -11463809.341 2652361.016 22655885.687 10 0 60878 69300.00000 0 -11037380.691 -127128.423 23020176.996 10 0 60878 70200.00000 0 -10812407.182 -2947515.222 22938560.999 10 0 60878 71100.00000 0 -10793106.569 -5739472.634 22412622.966 10 0 60878 72000.00000 0 -10971510.509 -8434343.445 21452527.852 10 0 60878 72900.00000 0 -11327843.829 -10966743.737 20076827.479 10 0 60878 73800.00000 0 -11831414.808 -13277035.742 18312108.695 10 0 60878 74700.00000 0 -12441979.622 -15313568.623 16192488.535 10 0 60878 75600.00000 0 -13111524.476 -17034595.395 13758965.044 10 0 60878 76500.00000 0 -13786391.405 -18409787.094 11058635.102 10 0 60878 77400.00000 0 -14409659.247 -19421281.686 8143793.187 10 0 60878 78300.00000 0 -14923680.182 -20064224.118 5070927.419 10 0 60878 79200.00000 0 -15272665.367 -20346774.950 1899631.450 10 0 60878 80100.00000 0 -15405210.560 -20289586.957 -1308547.259 10 0 60878 81000.00000 0 -15276654.657 -19924771.431 -4491300.682 10 0 60878 81900.00000 0 -14851170.668 -19294397.367 -7586771.792 10 0 60878 82800.00000 0 -14103499.484 -18448586.552 -10534760.500 10 0 60878 83700.00000 0 -13020251.591 -17443284.800 -13277900.035 10 0 60878 84600.00000 0 -11600719.928 -16337803.432 -15762780.164 10 0 60878 85500.00000 0 -9857167.612 -15192235.057 -17940994.678 10 0 60879 0.00000 0 -7814576.632 -14064853.173 -19770091.891 10 0 60879 900.00000 0 -5509864.991 -13009605.239 -21214409.947 10 0 60879 1800.00000 0 -2990606.293 -12073807.015 -22245777.717 10 0 60879 2700.00000 0 -313300.357 -11296133.884 -22844070.511 10 0 60879 3600.00000 0 2458731.260 -10704995.814 -22997606.881 10 0 60879 4500.00000 0 5257738.689 -10317364.118 -22703379.609 10 0 60879 5400.00000 0 8014126.586 -10138099.699 -21967115.976 10 0 60879 6300.00000 0 10659118.908 -10159811.003 -20803166.030 10 0 60879 7200.00000 0 13127394.592 -10363247.366 -19234220.982 10 0 60879 8100.00000 0 15359584.303 -10718210.661 -17290867.229 10 0 60879 9000.00000 0 17304524.187 -11184946.012 -15010984.835 10 0 60879 9900.00000 0 18921172.814 -11715952.011 -12439002.501 10 0 60879 10800.00000 0 20180111.759 -12258132.922 -9625024.004 10 0 60879 11700.00000 0 21064567.870 -12755200.844 -6623843.714 10 0 60879 12600.00000 0 21570915.541 -13150225.149 -3493871.136 10 0 60879 13500.00000 0 21708639.454 -13388220.366 -295986.282 10 0 60879 14400.00000 0 21499761.126 -13418662.321 2907650.978 10 0 60879 15300.00000 0 20977755.213 -13197825.455 6054813.595 10 0 60879 16200.00000 0 20186002.976 -12690842.239 9084417.845 10 0 60879 17100.00000 0 19175849.655 -11873397.563 11937707.757 10 0 60879 18000.00000 0 18004348.800 -10732986.694 14559390.425 10 0 60879 18900.00000 0 16731789.352 -9269683.921 16898700.480 10 0 60879 19800.00000 0 15419109.801 -7496389.730 18910373.805 10 0 60879 20700.00000 0 14125307.908 -5438546.075 20555512.572 10 0 60879 21600.00000 0 12904954.054 -3133331.413 21802326.077 10 0 60879 22500.00000 0 11805911.458 -628368.518 22626734.376 10 0 60879 23400.00000 0 10867357.514 2020001.955 23012824.239 10 0 60879 24300.00000 0 10118187.679 4748811.601 22953149.754 10 0 60879 25200.00000 0 9575867.433 7490832.777 22448872.500 10 0 60879 26100.00000 0 9245779.234 10177128.886 21509738.987 10 0 60879 27000.00000 0 9121091.037 12739682.429 20153895.782 10 0 60879 27900.00000 0 9183151.475 15113993.543 18407545.399 10 0 60879 28800.00000 0 9402395.159 17241542.686 16304448.837 10 0 60879 29700.00000 0 9739720.390 19072016.456 13885283.291 10 0 60879 30600.00000 0 10148282.021 20565204.900 11196866.226 10 0 60879 31500.00000 0 10575624.663 21692491.766 8291259.629 10 0 60879 32400.00000 0 10966067.030 22437875.757 5224770.676 10 0 60879 33300.00000 0 11263237.294 22798479.951 2056867.267 10 0 60879 34200.00000 0 11412652.545 22784527.722 -1150971.104 10 0 60879 35100.00000 0 11364233.120 22418785.736 -4336445.109 10 0 60879 36000.00000 0 11074644.847 21735496.915 -7437646.822 10 0 60879 36900.00000 0 10509369.061 20778847.840 -10394266.525 10 0 60879 37800.00000 0 9644411.457 19601034.807 -13148771.086 10 0 60879 38700.00000 0 8467575.771 18260009.863 -15647530.350 10 0 60879 39600.00000 0 6979246.614 16817001.823 -17841868.854 10 0 60879 40500.00000 0 5192646.369 15333916.921 -19689021.706 10 0 60879 41400.00000 0 3133553.325 13870728.898 -21152975.368 10 0 60879 42300.00000 0 839491.011 12482968.825 -22205176.426 10 0 60879 43200.00000 0 -1641578.907 11219420.694 -22825094.097 10 0 60879 44100.00000 0 -4253006.834 10120120.053 -23000625.190 10 0 60879 45000.00000 0 -6931576.297 9214740.052 -22728333.357 10 0 60879 45900.00000 0 -9609907.986 8521432.786 -22013517.817 10 0 60879 46800.00000 0 -12219046.809 8046174.426 -20870110.056 10 0 60879 47700.00000 0 -14691124.137 7782641.228 -19320400.494 10 0 60879 48600.00000 0 -16961984.159 7712620.903 -17394600.434 10 0 60879 49500.00000 0 -18973664.724 7806941.041 -15130247.980 10 0 60879 50400.00000 0 -20676629.049 8026874.312 -12571469.787 10 0 60879 51300.00000 0 -22031655.197 8325959.770 -9768113.439 10 0 60879 52200.00000 0 -23011304.787 8652162.049 -6774767.973 10 0 60879 53100.00000 0 -23600910.079 8950275.706 -3649692.380 10 0 60879 54000.00000 0 -23799039.162 9164471.767 -453673.788 10 0 60879 54900.00000 0 -23617421.167 9240877.643 2751161.568 10 0 60879 55800.00000 0 -23080336.209 9130080.397 5902560.591 10 0 60879 56700.00000 0 -22223497.381 8789446.919 8939354.564 10 0 60879 57600.00000 0 -21092473.389 8185162.569 11802645.489 10 0 60879 58500.00000 0 -19740719.499 7293902.162 14436944.370 10 0 60879 59400.00000 0 -18227300.585 6104062.885 16791239.653 10 0 60879 60300.00000 0 -16614402.381 4616507.354 18819975.829 10 0 60879 61200.00000 0 -14964735.417 2844785.622 20483924.137 10 0 60879 62100.00000 0 -13338939.914 814826.666 21750929.784 10 0 60879 63000.00000 0 -11793099.338 -1435888.222 22596522.517 10 0 60879 63900.00000 0 -10376465.326 -3859636.396 23004379.985 10 0 60879 64800.00000 0 -9129487.573 -6400195.685 22966636.072 10 0 60879 65700.00000 0 -8082229.417 -8994946.087 22484029.006 10 0 60879 66600.00000 0 -7253233.881 -11577245.606 21565886.803 10 0 60879 67500.00000 0 -6648886.364 -14078983.335 20229950.322 10 0 60879 68400.00000 0 -6263299.715 -16433205.556 18502036.891 10 0 60879 69300.00000 0 -6078726.049 -18576707.308 16415550.228 10 0 60879 70200.00000 0 -6066477.873 -20452483.064 14010845.052 10 0 60879 71100.00000 0 -6188320.047 -22011935.511 11334457.451 10 0 60879 72000.00000 0 -6398274.447 -23216750.948 8438214.671 10 0 60879 72900.00000 0 -6644761.757 -24040363.218 5378240.461 10 0 60879 73800.00000 0 -6872990.499 -24468944.816 2213874.304 10 0 60879 74700.00000 0 -7027492.586 -24501883.172 -993475.075 10 0 60879 75600.00000 0 -7054698.133 -24151721.532 -4181519.962 10 0 60879 76500.00000 0 -6905440.161 -23443566.183 -7288304.541 10 0 60879 77400.00000 0 -6537282.340 -22413984.224 -10253412.522 10 0 60879 78300.00000 0 -5916570.059 -21109437.679 -13019147.500 10 0 60879 79200.00000 0 -5020116.506 -19584319.396 -15531662.437 10 0 60879 80100.00000 0 -3836450.707 -17898673.143 -17742015.522 10 0 60879 81000.00000 0 -2366572.864 -16115693.811 -19607131.168 10 0 60879 81900.00000 0 -624183.143 -14299112.899 -21090646.816 10 0 60879 82800.00000 0 1364627.674 -12510579.483 -22163628.466 10 0 60879 83700.00000 0 3562214.464 -10807146.900 -22805140.618 10 0 60879 84600.00000 0 5920707.437 -9238970.923 -23002659.153 10 0 60879 85500.00000 0 8383780.735 -7847316.169 -22752318.867 10 0 60880 0.00000 0 10888786.635 -6662954.458 -22058990.728 10 0 60880 900.00000 0 13369168.043 -5705021.430 -20936186.757 10 0 60880 1800.00000 0 15757045.366 -4980380.449 -19405795.361 10 0 60880 2700.00000 0 17985874.183 -4483517.567 -17497651.030 10 0 60880 3600.00000 0 19993059.199 -4196972.466 -15248947.748 10 0 60880 4500.00000 0 21722416.337 -4092285.240 -12703507.498 10 0 60880 5400.00000 0 23126379.796 -4131417.703 -9910918.650 10 0 60880 6300.00000 0 24167861.675 -4268587.604 -6925561.532 10 0 60880 7200.00000 0 24821686.579 -4452436.608 -3805540.953 10 0 60880 8100.00000 0 25075541.806 -4628438.849 -611547.336 10 0 60880 9000.00000 0 24930404.173 -4741446.739 2594330.549 10 0 60880 9900.00000 0 24400426.832 -4738265.198 5749817.252 10 0 60880 10800.00000 0 23512292.264 -4570144.546 8793662.506 10 0 60880 11700.00000 0 22304060.011 -4195086.106 11666829.364 10 0 60880 12600.00000 0 20823558.901 -3579862.856 14313635.365 10 0 60880 13500.00000 0 19126392.297 -2701669.847 16682824.934 10 0 60880 14400.00000 0 17273640.671 -1549334.956 18728552.842 10 0 60880 15300.00000 0 15329357.952 -124039.134 20411260.612 10 0 60880 16200.00000 0 13357966.097 1560484.088 21698430.142 10 0 60880 17100.00000 0 11421655.955 3478278.466 22565201.229 10 0 60880 18000.00000 0 9577901.764 5592011.069 22994842.371 10 0 60880 18900.00000 0 7877191.435 7854300.074 22979066.821 10 0 60880 19800.00000 0 6361065.613 10209470.270 22518188.640 10 0 60880 20700.00000 0 5060545.618 12595664.719 21621116.148 10 0 60880 21600.00000 0 3995014.331 14947226.446 20305182.928 10 0 60880 22500.00000 0 3171595.432 17197252.875 18595819.212 10 0 60880 23400.00000 0 2585056.073 19280218.377 16526069.227 10 0 60880 24300.00000 0 2218236.466 21134557.209 14135962.758 10 0 60880 25200.00000 0 2042988.178 22705100.336 11471751.854 10 0 60880 26100.00000 0 2021581.806 23945265.101 8585026.214 10 0 60880 27000.00000 0 2108525.033 24818906.571 5531723.246 10 0 60880 27900.00000 0 2252714.723 25301752.895 2371051.059 10 0 60880 28800.00000 0 2399832.398 25382364.027 -835655.330 10 0 60880 29700.00000 0 2494881.872 25062572.818 -4026122.674 10 0 60880 30600.00000 0 2484761.369 24357389.010 -7138349.963 10 0 60880 31500.00000 0 2320760.664 23294369.214 -10111816.807 10 0 60880 32400.00000 0 1960876.503 21912478.434 -12888665.725 10 0 60880 33300.00000 0 1371847.049 20260490.256 -15414834.692 10 0 60880 34200.00000 0 530817.663 18394992.401 -17641117.151 10 0 60880 35100.00000 0 -573434.117 16378081.106 -19524128.143 10 0 60880 36000.00000 0 -1939768.021 14274841.002 -21027157.137 10 0 60880 36900.00000 0 -3554477.600 12150716.311 -22120890.364 10 0 60880 37800.00000 0 -5391624.219 10068883.707 -22783988.162 10 0 60880 38700.00000 0 -7413896.110 8087737.089 -23003505.775 10 0 60880 39600.00000 0 -9573957.753 6258589.735 -22775149.106 10 0 60880 40500.00000 0 -11816234.051 4623690.006 -22103360.305 10 0 60880 41400.00000 0 -14079055.304 3214633.436 -21001231.366 10 0 60880 42300.00000 0 -16297073.542 2051237.218 -19490247.358 10 0 60880 43200.00000 0 -18403849.185 1140923.437 -17599864.309 10 0 60880 44100.00000 0 -20334499.680 478635.796 -15366930.065 10 0 60880 45000.00000 0 -22028298.908 47291.920 -12834959.662 10 0 60880 45900.00000 0 -23431118.308 -181249.452 -10053279.769 10 0 60880 46800.00000 0 -24497607.169 -244748.926 -7076059.402 10 0 60880 47700.00000 0 -25193020.709 -188737.177 -3961246.575 10 0 60880 48600.00000 0 -25494619.368 -64335.865 -769432.385 10 0 60880 49500.00000 0 -25392581.223 74157.416 2437334.466 10 0 60880 50400.00000 0 -24890390.128 171816.658 5596758.735 10 0 60880 51300.00000 0 -24004684.250 175658.469 8647511.121 10 0 60880 52200.00000 0 -22764572.596 37127.164 11530418.162 10 0 60880 53100.00000 0 -21210449.357 -285611.561 14189606.279 10 0 60880 54000.00000 0 -19392356.865 -825665.307 16573578.056 10 0 60880 54900.00000 0 -17367966.374 -1605782.489 18636200.525 10 0 60880 55800.00000 0 -15200261.536 -2637161.185 20337587.213 10 0 60880 56700.00000 0 -12955021.169 -3918749.249 21644858.102 10 0 60880 57600.00000 0 -10698205.693 -5437065.042 22532764.107 10 0 60880 58500.00000 0 -8493355.140 -7166546.597 22984165.261 10 0 60880 59400.00000 0 -6399105.608 -9070415.225 22990354.523 10 0 60880 60300.00000 0 -4466925.864 -11102018.532 22551221.773 10 0 60880 61200.00000 0 -2739166.528 -13206598.142 21675255.287 10 0 60880 62100.00000 0 -1247501.352 -15323410.014 20379380.706 10 0 60880 63000.00000 0 -11823.976 -17388110.721 18688640.181 10 0 60880 63900.00000 0 960355.007 -19335311.888 16635717.157 10 0 60880 64800.00000 0 1673986.399 -21101197.793 14260314.889 10 0 60880 65700.00000 0 2146033.423 -22626098.118 11608399.502 10 0 60880 66600.00000 0 2404514.462 -23856909.165 8731321.004 10 0 60880 67500.00000 0 2487077.719 -24749262.623 5684828.106 10 0 60880 68400.00000 0 2439167.679 -25269350.967 2527995.015 10 0 60880 69300.00000 0 2311860.549 -25395332.420 -677919.608 10 0 60880 70200.00000 0 2159460.043 -25118255.623 -3870659.716 10 0 60880 71100.00000 0 2036955.383 -24442464.102 -6988181.889 10 0 60880 72000.00000 0 1997449.496 -23385462.286 -9969864.454 10 0 60880 72900.00000 0 2089667.053 -21977247.521 -12757691.672 10 0 60880 73800.00000 0 2355648.908 -20259135.047 -15297389.302 10 0 60880 74700.00000 0 2828731.811 -18282124.418 -17539488.695 10 0 60880 75600.00000 0 3531900.398 -16104875.250 -19440297.988 10 0 60880 76500.00000 0 4476582.731 -13791376.793 -20962760.872 10 0 60880 77400.00000 0 5661941.942 -11408408.784 -22077185.632 10 0 60880 78300.00000 0 7074695.529 -9022899.850 -22761829.863 10 0 60880 79200.00000 0 8689471.436 -6699293.993 -23003329.118 10 0 60880 80100.00000 0 10469687.320 -4497035.378 -22796960.889 10 0 60880 81000.00000 0 12368917.116 -2468276.486 -22146738.609 10 0 60880 81900.00000 0 14332688.379 -655905.230 -21065333.678 10 0 60880 82800.00000 0 16300635.402 908026.878 -19573826.994 10 0 60880 83700.00000 0 18208918.031 2203410.487 -17701294.808 10 0 60880 84600.00000 0 19992804.569 3222672.817 -15484237.070 10 0 60880 85500.00000 0 21589310.208 3970837.158 -12965859.665 10 0 60881 0.00000 0 22939779.760 4465046.568 -10195225.197 10 0 60881 900.00000 0 23992306.587 4733573.894 -7226287.868 10 0 60881 1800.00000 0 24703884.102 4814361.202 -4116835.783 10 0 60881 2700.00000 0 25042201.760 4753153.127 -927357.147 10 0 60881 3600.00000 0 24987008.465 4601304.179 2280143.045 10 0 60881 4500.00000 0 24530987.290 4413354.670 5443353.363 10 0 60881 5400.00000 0 23680105.357 4244479.088 8500868.917 10 0 60881 6300.00000 0 22453425.084 4147915.801 11393382.891 10 0 60881 7200.00000 0 20882385.590 4172487.345 14064833.400 10 0 60881 8100.00000 0 19009585.299 4360316.254 16463483.619 10 0 60881 9000.00000 0 16887117.370 4744832.719 18542914.858 10 0 60881 9900.00000 0 14574527.881 5349157.723 20262914.271 10 0 60881 10800.00000 0 12136481.947 6184929.349 21590241.156 10 0 60881 11700.00000 0 9640234.497 7251621.254 22499258.384 10 0 60881 12600.00000 0 7153010.091 8536381.860 22972417.978 10 0 60881 13500.00000 0 4739399.367 10014401.214 23000592.649 10 0 60881 14400.00000 0 2458878.670 11649790.822 22583247.716 10 0 60881 15300.00000 0 363554.161 13396940.658 21728450.597 10 0 60881 16200.00000 0 -1503777.650 15202297.990 20452717.724 10 0 60881 17100.00000 0 -3111173.993 17006495.323 18780701.487 10 0 60881 18000.00000 0 -4438631.671 18746740.145 16744722.469 10 0 60881 18900.00000 0 -5478670.502 20359368.232 14384154.997 10 0 60881 19800.00000 0 -6236390.788 21782455.061 11744676.619 10 0 60881 20700.00000 0 -6729002.842 22958376.989 8877394.798 10 0 60881 21600.00000 0 -6984848.479 23836215.436 5837866.584 10 0 60881 22500.00000 0 -7041955.631 24373903.266 2685029.260 10 0 60881 23400.00000 0 -6946186.824 24540022.815 -519937.900 10 0 60881 24300.00000 0 -6749059.645 24315179.161 -3714799.008 10 0 60881 25200.00000 0 -6505331.292 23692889.715 -6837471.081 10 0 60881 26100.00000 0 -6270449.715 22679951.342 -9827233.812 10 0 60881 27000.00000 0 -6097979.705 21296268.141 -12625915.617 10 0 60881 27900.00000 0 -6037113.715 19574145.653 -15179032.177 10 0 60881 28800.00000 0 -6130373.798 17557079.952 -17436854.593 10 0 60881 29700.00000 0 -6411603.156 15298091.348 -19355385.645 10 0 60881 30600.00000 0 -6904333.585 12857671.765 -20897224.510 10 0 60881 31500.00000 0 -7620599.250 10301431.276 -22032302.533 10 0 60881 32400.00000 0 -8560248.299 7697541.899 -22738475.294 10 0 60881 33300.00000 0 -9710782.707 5114085.352 -23001959.107 10 0 60881 34200.00000 0 -11047734.291 2616415.539 -22817603.182 10 0 60881 35100.00000 0 -12535562.099 264645.759 -22188991.998 10 0 60881 36000.00000 0 -14129034.162 -1888634.589 -21128375.729 10 0 60881 36900.00000 0 -15775035.986 -3800318.808 -19656430.042 10 0 60881 37800.00000 0 -17414729.936 -5438335.937 -17801849.929 10 0 60881 38700.00000 0 -18985974.712 -6782733.992 -15600785.582 10 0 60881 39600.00000 0 -20425902.878 -7826249.216 -13096131.553 10 0 60881 40500.00000 0 -21673547.616 -8574339.018 -10336683.420 10 0 60881 41400.00000 0 -22672407.828 -9044679.011 -7376178.948 10 0 60881 42300.00000 0 -23372843.090 -9266147.263 -4272243.135 10 0 60881 43200.00000 0 -23734197.325 -9277340.649 -1085258.510 10 0 60881 44100.00000 0 -23726561.804 -9124687.949 2122816.469 10 0 60881 45000.00000 0 -23332103.364 -8860241.262 5289657.017 10 0 60881 45900.00000 0 -22545902.380 -8539240.638 8353785.432 10 0 60881 46800.00000 0 -21376265.775 -8217556.107 11255764.275 10 0 60881 47700.00000 0 -19844502.644 -7949116.010 13939345.956 10 0 60881 48600.00000 0 -17984172.544 -7783430.593 16352556.655 10 0 60881 49500.00000 0 -15839838.490 -7763315.365 18448694.132 10 0 60881 50400.00000 0 -13465377.074 -7922909.827 20187221.005 10 0 60881 51300.00000 0 -10921916.187 -8286074.453 21534537.371 10 0 60881 52200.00000 0 -8275485.777 -8865232.777 22464619.138 10 0 60881 53100.00000 0 -5594478.535 -9660706.728 22959511.006 10 0 60881 54000.00000 0 -2947024.720 -10660572.917 23009665.731 10 0 60881 54900.00000 0 -398388.544 -11841046.038 22614124.008 10 0 60881 55800.00000 0 1991507.597 -13167373.893 21780531.997 10 0 60881 56700.00000 0 4170330.115 -14595207.503 20524996.227 10 0 60881 57600.00000 0 6095260.928 -16072390.257 18871778.328 10 0 60881 58500.00000 0 7734525.278 -17541092.653 16852834.747 10 0 60881 59400.00000 0 9068458.364 -18940204.732 14507209.300 10 0 60881 60300.00000 0 10090067.262 -20207887.377 11880289.065 10 0 60881 61200.00000 0 10805065.215 -21284176.542 9022936.785 10 0 60881 62100.00000 0 11231377.197 -22113531.859 5990515.387 10 0 60881 63000.00000 0 11398137.563 -22647222.739 2841822.552 10 0 60881 63900.00000 0 11344221.902 -22845451.394 -362044.665 10 0 60881 64800.00000 0 11116374.861 -22679122.684 -3558873.464 10 0 60881 65700.00000 0 10767012.956 -22131185.149 -6686544.231 10 0 60881 66600.00000 0 10351795.333 -21197485.303 -9684240.937 10 0 60881 67500.00000 0 9927065.553 -19887097.616 -12493638.974 10 0 60881 68400.00000 0 9547273.210 -18222114.622 -15060046.647 10 0 60881 69300.00000 0 9262485.267 -16236904.387 -17333477.334 10 0 60881 70200.00000 0 9116093.347 -13976865.111 -19269630.765 10 0 60881 71100.00000 0 9142815.034 -11496727.888 -20830763.630 10 0 60881 72000.00000 0 9367074.829 -8858477.836 -21986432.014 10 0 60881 72900.00000 0 9801834.270 -6128979.906 -22714090.779 10 0 60881 73800.00000 0 10447921.713 -3377408.148 -22999537.877 10 0 60881 74700.00000 0 11293891.010 -672585.553 -22837194.686 10 0 60881 75600.00000 0 12316415.835 1919654.733 -22230216.754 10 0 60881 76500.00000 0 13481203.675 4338976.896 -21190432.644 10 0 60881 77400.00000 0 14744391.317 6532814.265 -19738112.002 10 0 60881 78300.00000 0 16054363.184 8458311.072 -17901567.382 10 0 60881 79200.00000 0 17353915.819 10083853.706 -15716597.645 10 0 60881 80100.00000 0 18582676.948 11390128.391 -13225784.027 10 0 60881 81000.00000 0 19679676.774 12370662.293 -10477652.972 10 0 60881 81900.00000 0 20585962.499 13031826.981 -7525722.573 10 0 60881 82800.00000 0 21247145.220 13392305.894 -4427451.890 10 0 60881 83700.00000 0 21615771.397 13482050.308 -1243114.473 10 0 60881 84600.00000 0 21653418.455 13340769.836 1965381.173 10 0 60881 85500.00000 0 21332426.115 13016023.153 5135700.345 99